Tracking 20945 objects as of 9-Jul-2020
HD Live streaming from Space Station
objects crossing your sky now

CZ-4C DEB

Track CZ-4C DEB now!
10-day predictions


NORAD ID: 39231
Int'l Code: 2013-037H
Perigee: 674.9 km
Apogee: 1,045.5 km
Inclination: 98.1 °
Period: 102.0 minutes
Semi major axis: 7231 km
RCS: Unknown
Launch date: July 19, 2013
Source: People's Republic of China (PRC)
Launch site: Taiyaun Space Center, China (TSC)

Note: This is SATELLITE DEBRIS
aabbcc
Your satellite tracking list
Your tracking list is empty




NASA's NSSDC Master Catalog

Two Line Element Set (TLE):
1 39231U 13037H   20190.71658026  .00000049  00000-0  35597-4 0  9995
2 39231  98.0800   3.7776 0256224  46.2103 315.9957 14.11839202353867
Source of the keplerian elements: AFSPC